Starlink 31900

operational
NORAD ID: 59942 Int'l Des: 2024-106 Owner: SPXS Country: US Constellation: starlink
LEOCIRCULAR

About Starlink 31900

Description loading...

Live Position

Loading 3D Globe...

Upcoming Passes

Altitude History

Altitude vs Time

uPlot chart will show altitude changes over time

Two-Line Element Set

1 59942U 24106W 25302.83238988 -.00002711 00000-0 -89020-4 0 9999
2 59942 43.0009 351.2141 0000803 291.2598 68.8168 15.27584792 80512
Epoch: Oct 29, 2025 • Age: 25 hours

Current Status

Altitude 482.0 km
Velocity 7.63 km/s
Sub-Earth Point 13.28°N, 2.87°E
Launch Date Jun 1, 2024
Age 1.4 years
Type internet

Technical Details

Classification Payload
Mass 730.00 kg
Dry Mass 700.00 kg
Total Mass 730.00 kg
Length 0.30 m
Diameter 4.10 m
Span 29.00 m
Shape Box + pan
Manufacturer SPXS
Bus Type Starlink V2M
Phase Status In Orbit
Owner/State SPXS/US

Large Constellations

Loading constellations...